Regional Weather Roundup
Issued by NWS

Home | Current Version | Previous Version | Text Only | Print | Product List | Glossary On
Versions: 1 2 3 4 5 6 7 8 9 10 11 12 13 14 15 16 17 18 19 20 21 22 23 24 25 26 27 28 29 30 31 32 33 34 35 36 37 38 39 40 41 42 43 44 45 46 47 48 49 50
383
ASUS44 KBMX 240810
RWRAL

ALABAMA REGIONAL WEATHER ROUNDUP
NATIONAL WEATHER SERVICE BIRMINGHAM AL
200 AM CST TUE JAN 24 2017

NOTE: "FAIR" INDICATES FEW OR NO CLOUDS BELOW 12,000 FEET
WITH NO SIGNIFICANT WEATHER AND/OR OBSTRUCTIONS TO VISIBILITY.

THE REMARK "TC" DENOTES TEMPERATURE IN DEGREES CELSIUS.

ALZ001>011-014-016>018-020-240900-
NORTH ALABAMA

CITY           SKY/WX    TMP DP  RH WIND       PRES   REMARKS
MUSCLE SHOALS  PTCLDY    40  35  83 NW3       29.87R
HUNTSVILLE     CLOUDY    45  39  79 W6        29.84R
DECATUR        CLOUDY    44  38  79 NW8       29.86R
HALEYVILLE     FAIR      38  36  92 NW6       29.87R WCI  33
GADSDEN        CLOUDY    46  40  79 W8        29.83R
$$

ALZ012-013-022-023-030>036-040>044-240900-
WEST CENTRAL ALABAMA

CITY           SKY/WX    TMP DP  RH WIND       PRES   REMARKS
TUSCALOOSA     CLEAR     42  39  89 CALM      29.88R
$$

ALZ015-024>027-033>036-040>044-240900-
CENTRAL ALABAMA

CITY           SKY/WX    TMP DP  RH WIND       PRES   REMARKS
BIRMINGHAM     CLOUDY    45  40  82 NW6       29.85S
MONTGOMERY     CLEAR     48  40  73 W10       29.84R
SHELBY CO ARPT CLOUDY    46  40  79 N8        29.84R
MAXWELL AFB    CLEAR     47  43  85 W5        29.83R
GREENVILLE     FAIR      46  41  82 NW8       29.82S
$$

ALZ019-021-028-029-037-038-045>048-240900-
EAST CENTRAL ALABAMA

CITY           SKY/WX    TMP DP  RH WIND       PRES   REMARKS
ANNISTON       CLOUDY    48  40  73 NW7       29.81R
ALEXANDER CITY CLEAR     50  45  84 NW5       29.80R
AUBURN         CLEAR     46  42  86 NW9       29.79R
$$

ALZ051>064-240900-
SOUTHWEST ALABAMA

CITY           SKY/WX    TMP DP  RH WIND       PRES   REMARKS
MOBILE         CLEAR     48  43  82 NW7       29.89R
BROOKLEY FIELD CLEAR     50  45  83 NW8       29.89S
EVERGREEN      CLEAR     46  42  86 CALM      29.86R
$$

ALZ049-050-065>069-240900-
SOUTHEAST ALABAMA

CITY           SKY/WX    TMP DP  RH WIND       PRES   REMARKS
DOTHAN         CLEAR     50  46  86 W10       29.84R
OZARK          CLEAR     49  45  85 W6        29.82R
TROY           CLEAR     46  43  89 W6        29.83R
EUFAULA        FAIR      50  43  77 W5        29.79R
$$




USA.gov is the U.S. government's official web portal to all federal, state and local government web resources and services.